Weather History for NW Arkansas Airport, AR

Change the Weather History Date:

Sunday, October 13, 2013

  Actual Average Record
Temperature  
Mean Temperature 64 °F -  
Max Temperature 72 °F - - ()
Min Temperature 57 °F - - ()
Degree Days  
Heating Degree Days 1    
Growing Degree Days 14 (Base 50)    
Moisture  
Dew Point 51 °F    
Average Humidity 66    
Maximum Humidity 84    
Minimum Humidity 51    
Precipitation  
Precipitation 0.00 in - - ()
Sea Level Pressure  
Sea Level Pressure 30.24 in    
Wind  
Wind Speed 7 mph (ENE)    
Max Wind Speed 15 mph    
Max Gust Speed 20 mph    
Visibility 10 miles    
Events      
T = Trace of Precipitation, MM = Missing Value Source: NWS Daily Summary

Daily Weather History Graph

Daily Weather History Graph

Search for Another Location

Airport:

Trip Planner

Search our weather history database for the weather conditions in past years. The results will help you decide how hot, cold, wet, or windy it might be!

Date:

Astronomy

Oct. 13, 2013 Rise Set
Actual Time 7:22 AM CDT 6:43 PM CDT
Civil Twilight 6:56 AM CDT 7:09 PM CDT
Nautical Twilight 6:27 AM CDT 7:39 PM CDT
Astronomical Twilight 5:57 AM CDT 8:08 PM CDT
Moon 3:27 PM CDT (10/13) 1:42 AM CDT (10/13)
Length of Visible Light 12h 12m
Length of Day
11h 20m
Waxing Gibbous, 69% of the Moon is Illuminated
Oct 13
Waxing Gibbous
Oct 18
Full
Oct 26
Last Quarter
Nov 3
New
Nov 9
First Quarter

Hourly Weather History & Observations

Time (CDT) Temp. Dew Point Humidity Pressure Visibility Wind Dir Wind Speed Gust Speed Precip Events Conditions
12:07 AM 60.8 °F 53.6 °F 77% 30.18 in 10.0 mi NE 5.8 mph - N/A   Mostly Cloudy
12:53 AM 59.0 °F 54.0 °F 83% 30.17 in 10.0 mi NE 4.6 mph - N/A   Partly Cloudy
1:53 AM 57.9 °F 53.1 °F 84% 30.19 in 10.0 mi NE 3.5 mph - N/A   Mostly Cloudy
2:53 AM 59.0 °F 53.1 °F 81% 30.19 in 10.0 mi NE 4.6 mph - N/A   Overcast
3:03 AM 59.0 °F 53.6 °F 82% 30.21 in 10.0 mi ENE 4.6 mph - N/A   Overcast
3:53 AM 60.1 °F 51.1 °F 72% 30.20 in 10.0 mi ENE 8.1 mph - N/A   Overcast
4:09 AM 60.8 °F 50.0 °F 68% 30.22 in 10.0 mi ENE 8.1 mph - N/A   Overcast
4:40 AM 60.8 °F 48.2 °F 63% 30.23 in 10.0 mi ENE 6.9 mph - N/A   Overcast
4:53 AM 60.1 °F 48.9 °F 67% 30.21 in 10.0 mi East 9.2 mph - N/A   Overcast
5:53 AM 60.1 °F 48.0 °F 64% 30.23 in 10.0 mi East 9.2 mph - N/A   Overcast
6:53 AM 60.1 °F 48.0 °F 64% 30.24 in 10.0 mi East 10.4 mph - N/A   Overcast
7:53 AM 60.1 °F 48.9 °F 67% 30.27 in 10.0 mi ENE 6.9 mph - N/A   Overcast
8:53 AM 60.1 °F 48.0 °F 64% 30.29 in 10.0 mi ENE 9.2 mph - N/A   Overcast
9:53 AM 61.0 °F 46.9 °F 60% 30.30 in 10.0 mi East 8.1 mph - N/A   Overcast
10:53 AM 63.0 °F 46.0 °F 54% 30.31 in 10.0 mi East 15.0 mph 19.6 mph N/A   Overcast
11:53 AM 66.0 °F 48.0 °F 52% 30.30 in 10.0 mi East 12.7 mph 18.4 mph N/A   Scattered Clouds
12:53 PM 68.0 °F 50.0 °F 52% 30.30 in 10.0 mi East 11.5 mph - N/A   Mostly Cloudy
1:53 PM 69.1 °F 51.1 °F 53% 30.27 in 10.0 mi ESE 8.1 mph - N/A   Overcast
2:53 PM 71.1 °F 52.0 °F 51% 30.24 in 10.0 mi East 6.9 mph - N/A   Clear
3:53 PM 71.1 °F 54.0 °F 55% 30.22 in 10.0 mi NE 8.1 mph - N/A   Partly Cloudy
4:53 PM 71.1 °F 54.0 °F 55% 30.22 in 10.0 mi ENE 10.4 mph - N/A   Clear
5:53 PM 69.1 °F 54.0 °F 58% 30.21 in 10.0 mi ENE 9.2 mph - N/A   Clear
6:53 PM 64.9 °F 54.0 °F 68% 30.22 in 10.0 mi ENE 4.6 mph - N/A   Clear
7:53 PM 63.0 °F 54.0 °F 72% 30.25 in 10.0 mi ENE 3.5 mph - N/A   Clear
8:53 PM 62.1 °F 53.1 °F 72% 30.26 in 10.0 mi ENE 5.8 mph - N/A   Clear
9:53 PM 62.1 °F 52.0 °F 70% 30.27 in 10.0 mi East 5.8 mph - N/A   Clear
10:53 PM 60.1 °F 52.0 °F 75% 30.26 in 10.0 mi East 4.6 mph - N/A   Clear
11:53 PM 59.0 °F 52.0 °F 78% 30.25 in 10.0 mi East 3.5 mph - N/A   Clear